| time (UTC) | temp F | wind direction | speed MPH | gust MPH | rain 1hr in | rain 24hr in | rain mn in | humidity % | barometer mb |
| 20260508055504 | 48 | 225 | 0.0 | 1.0 | 0.00 | 0.44 | 0.00 | 94 | 1022.1 |
| 20260508055004 | 48 | 155 | 1.0 | 1.0 | 0.00 | 0.44 | 0.00 | 94 | 1022.0 |
| 20260508054504 | 48 | 153 | 0.0 | 1.0 | 0.00 | 0.44 | 0.00 | 94 | 1022.0 |
| 20260508054003 | 48 | 153 | 0.0 | 0.0 | 0.00 | 0.44 | 0.00 | 94 | 1022.0 |
| 20260508053504 | 48 | 153 | 0.0 | 0.0 | 0.00 | 0.44 | 0.00 | 94 | 1021.8 |
| 20260508053004 | 48 | 153 | 0.0 | 1.0 | 0.00 | 0.44 | 0.00 | 94 | 1021.8 |
| 20260508052504 | 48 | 146 | 1.0 | 1.0 | 0.00 | 0.44 | 0.00 | 94 | 1022.1 |
| 20260508052004 | 48 | 141 | 0.0 | 1.0 | 0.00 | 0.44 | 0.00 | 94 | 1021.5 |
| 20260508051505 | 48 | 183 | 0.0 | 0.0 | 0.00 | 0.44 | 0.00 | 94 | 1021.7 |
| 20260508050504 | 48 | 190 | 0.0 | 0.0 | 0.00 | 0.44 | 0.00 | 95 | 1021.5 |
| 20260508045503 | 48 | 187 | 1.0 | 2.0 | 0.00 | 0.44 | 0.00 | 94 | 1021.3 |
| 20260508045004 | 48 | 224 | 0.0 | 0.0 | 0.00 | 0.44 | 0.00 | 95 | 1021.1 |
| 20260508044504 | 48 | 225 | 0.0 | 1.0 | 0.00 | 0.44 | 0.00 | 95 | 1020.9 |
| 20260508044003 | 48 | 228 | 1.0 | 3.0 | 0.00 | 0.44 | 0.00 | 95 | 1021.1 |
| 20260508043504 | 48 | 235 | 1.0 | 3.0 | 0.00 | 0.44 | 0.00 | 95 | 1021.2 |
| 20260508043004 | 48 | 216 | 2.0 | 3.0 | 0.00 | 0.44 | 0.00 | 95 | 1021.1 |
| 20260508042503 | 48 | 223 | 0.0 | 1.0 | 0.00 | 0.44 | 0.00 | 95 | 1020.8 |
| 20260508042004 | 48 | 223 | 0.0 | 1.0 | 0.00 | 0.44 | 0.00 | 95 | 1020.9 |
| 20260508041504 | 48 | 222 | 0.0 | 0.0 | 0.00 | 0.44 | 0.00 | 95 | 1020.8 |
| 20260508040004 | 48 | 222 | 0.0 | 0.0 | 0.00 | 0.44 | 0.00 | 95 | 1021.3 |
| 20260508035504 | 48 | 223 | 0.0 | 1.0 | 0.00 | 0.44 | 0.00 | 95 | 1021.2 |
| 20260508035003 | 48 | 225 | 1.0 | 2.0 | 0.00 | 0.44 | 0.00 | 95 | 1021.1 |
| 20260508034504 | 48 | 299 | 0.0 | 1.0 | 0.00 | 0.44 | 0.00 | 95 | 1021.2 |
| 20260508033504 | 48 | 281 | 0.0 | 1.0 | 0.00 | 0.44 | 0.00 | 95 | 1021.0 |
| 20260508033004 | 48 | 242 | 0.0 | 1.0 | 0.00 | 0.44 | 0.00 | 95 | 1021.1 |
| 20260508032004 | 48 | 209 | 1.0 | 2.0 | 0.00 | 0.44 | 0.00 | 95 | 1021.1 |
| 20260508031504 | 48 | 217 | 0.0 | 1.0 | 0.00 | 0.44 | 0.00 | 95 | 1021.0 |
| 20260508031004 | 48 | 214 | 1.0 | 2.0 | 0.00 | 0.44 | 0.00 | 95 | 1021.0 |
| 20260508030504 | 49 | 289 | 0.0 | 1.0 | 0.00 | 0.44 | 0.00 | 95 | 1021.2 |
| 20260508030004 | 49 | 286 | 0.0 | 1.0 | 0.00 | 0.44 | 0.00 | 95 | 1021.0 |
| 20260508025504 | 49 | 263 | 0.0 | 0.0 | 0.00 | 0.44 | 0.00 | 95 | 1021.2 |
| 20260508025005 | 49 | 259 | 0.0 | 0.0 | 0.00 | 0.44 | 0.00 | 95 | 1021.0 |
| 20260508024503 | 49 | 259 | 0.0 | 1.0 | 0.00 | 0.44 | 0.00 | 94 | 1021.0 |
| 20260508024003 | 49 | 255 | 0.0 | 1.0 | 0.00 | 0.44 | 0.00 | 94 | 1021.0 |
| 20260508023504 | 49 | 187 | 0.0 | 2.0 | 0.00 | 0.44 | 0.00 | 94 | 1020.9 |
| 20260508023004 | 49 | 193 | 1.0 | 2.0 | 0.00 | 0.44 | 0.00 | 94 | 1021.0 |
| 20260508021504 | 50 | 232 | 0.0 | 1.0 | 0.00 | 0.44 | 0.00 | 94 | 1021.2 |
| 20260508021003 | 50 | 229 | 1.0 | 2.0 | 0.00 | 0.44 | 0.00 | 94 | 1021.2 |
| 20260508020504 | 50 | 175 | 1.0 | 1.0 | 0.00 | 0.44 | 0.00 | 94 | 1021.2 |
| 20260508015504 | 51 | 187 | 0.0 | 0.0 | 0.00 | 0.44 | 0.00 | 94 | 1021.2 |
| 20260508015003 | 51 | 188 | 0.0 | 1.0 | 0.00 | 0.44 | 0.00 | 94 | 1021.2 |
| 20260508014004 | 51 | 199 | 0.0 | 1.0 | 0.00 | 0.44 | 0.00 | 94 | 1021.3 |
| 20260508013004 | 51 | 207 | 0.0 | 2.0 | 0.00 | 0.44 | 0.00 | 93 | 1021.5 |
| 20260508012503 | 51 | 206 | 0.0 | 0.0 | 0.00 | 0.44 | 0.00 | 93 | 1021.5 |
| 20260508012004 | 51 | 206 | 0.0 | 0.0 | 0.00 | 0.44 | 0.00 | 93 | 1021.5 |
| 20260508011504 | 51 | 206 | 0.0 | 0.0 | 0.00 | 0.44 | 0.00 | 93 | 1021.5 |
| 20260508011004 | 51 | 205 | 0.0 | 2.0 | 0.00 | 0.44 | 0.00 | 93 | 1021.8 |
| 20260508010504 | 51 | 229 | 1.0 | 2.0 | 0.00 | 0.44 | 0.00 | 93 | 1021.8 |
| 20260508010004 | 51 | 21 | 0.0 | 0.0 | 0.00 | 0.44 | 0.00 | 93 | 1021.9 |
| 20260508004504 | 51 | 31 | 1.0 | 2.0 | 0.00 | 0.44 | 0.00 | 93 | 1022.0 |
| 20260508003503 | 51 | 15 | 0.0 | 1.0 | 0.00 | 0.44 | 0.00 | 93 | 1022.0 |
| 20260508003004 | 51 | 16 | 0.0 | 1.0 | 0.00 | 0.44 | 0.00 | 93 | 1022.1 |
| 20260508002504 | 51 | 15 | 1.0 | 1.0 | 0.00 | 0.44 | 0.00 | 93 | 1022.2 |
| 20260508002004 | 51 | 343 | 0.0 | 0.0 | 0.00 | 0.44 | 0.00 | 93 | 1022.1 |
| 20260508001504 | 51 | 343 | 1.0 | 2.0 | 0.00 | 0.44 | 0.00 | 93 | 1022.2 |
| 20260508001004 | 51 | 324 | 1.0 | 1.0 | 0.00 | 0.44 | 0.00 | 93 | 1022.1 |
| 20260507235504 | 51 | 317 | 1.0 | 1.0 | 0.00 | 0.44 | 0.00 | 93 | 1022.2 |
| 20260507235004 | 51 | 289 | 1.0 | 1.0 | 0.00 | 0.44 | 0.00 | 94 | 1022.5 |
| 20260507234504 | 51 | 235 | 0.0 | 0.0 | 0.00 | 0.44 | 0.00 | 94 | 1022.3 |
| 20260507234004 | 51 | 235 | 0.0 | 2.0 | 0.00 | 0.44 | 0.00 | 94 | 1022.4 |
| 20260507233004 | 51 | 184 | 0.0 | 0.0 | 0.00 | 0.44 | 0.00 | 94 | 1022.6 |
| 20260507232504 | 51 | 184 | 0.0 | 0.0 | 0.00 | 0.44 | 0.00 | 93 | 1022.6 |
| 20260507231503 | 51 | 203 | 0.0 | 1.0 | 0.00 | 0.44 | 0.00 | 94 | 1022.4 |
| 20260507231004 | 51 | 201 | 0.0 | 1.0 | 0.00 | 0.44 | 0.00 | 93 | 1022.2 |
| 20260507230504 | 51 | 228 | 0.0 | 3.0 | 0.00 | 0.44 | 0.00 | 93 | 1022.4 |
| 20260507230004 | 51 | 160 | 0.0 | 1.0 | 0.00 | 0.44 | 0.00 | 93 | 1022.5 |
| 20260507225503 | 51 | 150 | 1.0 | 2.0 | 0.00 | 0.44 | 0.00 | 93 | 1022.4 |
| 20260507225004 | 51 | 231 | 1.0 | 2.0 | 0.00 | 0.44 | 0.00 | 93 | 1022.3 |
| 20260507224504 | 51 | 252 | 1.0 | 2.0 | 0.00 | 0.44 | 0.00 | 93 | 1022.4 |
| 20260507223505 | 51 | 251 | 0.0 | 0.0 | 0.00 | 0.44 | 0.00 | 93 | 1022.4 |
| 20260507223004 | 52 | 249 | 0.0 | 0.0 | 0.00 | 0.44 | 0.00 | 93 | 1022.5 |
| 20260507221505 | 52 | 255 | 1.0 | 2.0 | 0.00 | 0.44 | 0.00 | 93 | 1022.2 |
| 20260507221004 | 52 | 239 | 1.0 | 2.0 | 0.00 | 0.44 | 0.00 | 93 | 1022.2 |
| 20260507220003 | 52 | 326 | 1.0 | 1.0 | 0.00 | 0.44 | 0.00 | 94 | 1022.0 |
| 20260507215004 | 52 | 38 | 1.0 | 2.0 | 0.00 | 0.44 | 0.44 | 94 | 1022.1 |
| 20260507214503 | 52 | 66 | 1.0 | 2.0 | 0.00 | 0.44 | 0.44 | 94 | 1022.1 |
| 20260507214004 | 52 | 66 | 0.0 | 1.0 | 0.00 | 0.44 | 0.44 | 94 | 1022.2 |
| 20260507213504 | 52 | 66 | 1.0 | 2.0 | 0.00 | 0.44 | 0.44 | 94 | 1022.0 |
| 20260507213004 | 52 | 67 | 0.0 | 2.0 | 0.00 | 0.44 | 0.44 | 94 | 1022.1 |
| 20260507212504 | 52 | 75 | 1.0 | 3.0 | 0.00 | 0.44 | 0.44 | 94 | 1022.3 |
| 20260507212003 | 52 | 64 | 1.0 | 3.0 | 0.00 | 0.44 | 0.44 | 94 | 1022.1 |
| 20260507211504 | 53 | 76 | 1.0 | 3.0 | 0.00 | 0.44 | 0.44 | 94 | 1022.2 |
| 20260507211004 | 53 | 65 | 1.0 | 3.0 | 0.00 | 0.44 | 0.44 | 94 | 1022.3 |
| 20260507210504 | 53 | 55 | 1.0 | 2.0 | 0.00 | 0.44 | 0.44 | 94 | 1022.3 |
| 20260507210004 | 53 | 64 | 1.0 | 2.0 | 0.00 | 0.44 | 0.44 | 94 | 1022.2 |
| 20260507205503 | 53 | 48 | 1.0 | 2.0 | 0.00 | 0.44 | 0.44 | 94 | 1021.9 |
| 20260507205004 | 53 | 56 | 1.0 | 2.0 | 0.00 | 0.44 | 0.44 | 94 | 1022.0 |
| 20260507204503 | 53 | 60 | 1.0 | 2.0 | 0.00 | 0.44 | 0.44 | 93 | 1022.0 |
| 20260507204004 | 53 | 53 | 0.0 | 2.0 | 0.00 | 0.44 | 0.44 | 93 | 1022.0 |
| 20260507203504 | 53 | 53 | 0.0 | 2.0 | 0.00 | 0.44 | 0.44 | 93 | 1022.0 |
| 20260507203005 | 53 | 58 | 1.0 | 3.0 | 0.00 | 0.44 | 0.44 | 93 | 1021.8 |
| 20260507201504 | 53 | 37 | 1.0 | 5.0 | 0.00 | 0.44 | 0.44 | 93 | 1021.7 |
| 20260507201004 | 53 | 45 | 3.0 | 6.0 | 0.00 | 0.44 | 0.44 | 93 | 1021.7 |
| 20260507200504 | 53 | 41 | 4.0 | 7.0 | 0.00 | 0.44 | 0.44 | 93 | 1021.7 |
| 20260507200004 | 53 | 30 | 3.0 | 8.0 | 0.00 | 0.44 | 0.44 | 93 | 1021.5 |
| 20260507195504 | 53 | 41 | 3.0 | 5.0 | 0.00 | 0.44 | 0.44 | 93 | 1021.3 |
| 20260507195003 | 53 | 31 | 3.0 | 5.0 | 0.00 | 0.44 | 0.44 | 93 | 1021.4 |
| 20260507194503 | 53 | 39 | 1.0 | 3.0 | 0.00 | 0.44 | 0.44 | 93 | 1021.4 |
| 20260507194004 | 53 | 50 | 2.0 | 5.0 | 0.00 | 0.44 | 0.44 | 93 | 1021.1 |
| 20260507193503 | 53 | 52 | 1.0 | 3.0 | 0.00 | 0.44 | 0.44 | 93 | 1021.0 |
| 20260507193004 | 53 | 49 | 1.0 | 2.0 | 0.00 | 0.44 | 0.44 | 93 | 1021.0 |
| 20260507192503 | 53 | 64 | 1.0 | 3.0 | 0.00 | 0.44 | 0.44 | 94 | 1020.9 |
| 20260507192005 | 53 | 20 | 1.0 | 3.0 | 0.00 | 0.44 | 0.44 | 94 | 1020.9 |
| 20260507191503 | 53 | 229 | 0.0 | 1.0 | 0.00 | 0.44 | 0.44 | 94 | 1020.8 |
| 20260507190504 | 53 | 229 | 0.0 | 1.0 | 0.00 | 0.44 | 0.44 | 93 | 1020.4 |
| 20260507190005 | 53 | 229 | 0.0 | 1.0 | 0.00 | 0.44 | 0.44 | 93 | 1020.4 |
| 20260507184504 | 53 | 229 | 0.0 | 1.0 | 0.00 | 0.44 | 0.44 | 93 | 1020.6 |
| 20260507184003 | 54 | 229 | 0.0 | 1.0 | 0.00 | 0.44 | 0.44 | 93 | 1020.5 |
| 20260507183504 | 54 | 229 | 0.0 | 0.0 | 0.00 | 0.44 | 0.44 | 93 | 1020.3 |
| 20260507182504 | 53 | 229 | 1.0 | 2.0 | 0.00 | 0.44 | 0.44 | 93 | 1020.4 |
| 20260507182004 | 54 | 225 | 1.0 | 2.0 | 0.00 | 0.44 | 0.44 | 94 | 1020.5 |
| 20260507181503 | 53 | 220 | 1.0 | 2.0 | 0.01 | 0.44 | 0.44 | 94 | 1020.2 |
| 20260507181004 | 53 | 248 | 1.0 | 3.0 | 0.01 | 0.44 | 0.44 | 94 | 1020.3 |
| 20260507180504 | 53 | 221 | 2.0 | 3.0 | 0.02 | 0.44 | 0.44 | 94 | 1020.4 |
| 20260507180004 | 53 | 242 | 2.0 | 3.0 | 0.02 | 0.44 | 0.44 | 94 | 1020.4 |
| 20260507175004 | 54 | 227 | 2.0 | 5.0 | 0.04 | 0.44 | 0.44 | 94 | 1019.9 |
| 20260507174504 | 54 | 184 | 1.0 | 2.0 | 0.04 | 0.44 | 0.44 | 94 | 1020.0 |
| 20260507174004 | 54 | 230 | 1.0 | 2.0 | 0.05 | 0.44 | 0.44 | 94 | 1019.7 |
| 20260507173503 | 54 | 250 | 1.0 | 2.0 | 0.05 | 0.44 | 0.44 | 94 | 1020.0 |
| 20260507173004 | 53 | 211 | 0.0 | 1.0 | 0.06 | 0.44 | 0.44 | 94 | 1020.1 |
| 20260507172503 | 53 | 231 | 1.0 | 2.0 | 0.07 | 0.44 | 0.44 | 94 | 1020.0 |
| 20260507172005 | 53 | 225 | 0.0 | 2.0 | 0.09 | 0.44 | 0.44 | 94 | 1020.0 |
| 20260507171504 | 53 | 235 | 1.0 | 3.0 | 0.09 | 0.43 | 0.43 | 94 | 1020.0 |
| 20260507171004 | 53 | 308 | 1.0 | 3.0 | 0.11 | 0.43 | 0.43 | 94 | 1020.0 |
| 20260507170004 | 53 | 253 | 1.0 | 2.0 | 0.17 | 0.42 | 0.42 | 93 | 1020.0 |
| 20260507165503 | 53 | 227 | 1.0 | 2.0 | 0.18 | 0.41 | 0.41 | 93 | 1020.0 |
| 20260507165004 | 53 | 131 | 1.0 | 2.0 | 0.20 | 0.40 | 0.40 | 93 | 1020.3 |
| 20260507164504 | 52 | 204 | 1.0 | 6.0 | 0.23 | 0.40 | 0.40 | 92 | 1020.1 |
| 20260507164004 | 52 | 217 | 3.0 | 6.0 | 0.23 | 0.39 | 0.39 | 93 | 1020.1 |
| 20260507163503 | 53 | 211 | 0.0 | 2.0 | 0.24 | 0.39 | 0.39 | 93 | 1020.3 |
| 20260507163004 | 52 | 250 | 2.0 | 3.0 | 0.24 | 0.38 | 0.38 | 93 | 1020.0 |
| 20260507162504 | 53 | 252 | 3.0 | 3.0 | 0.25 | 0.37 | 0.37 | 93 | 1020.3 |
| 20260507162004 | 53 | 212 | 1.0 | 2.0 | 0.24 | 0.35 | 0.35 | 93 | 1020.1 |
| 20260507161505 | 53 | 224 | 0.0 | 2.0 | 0.25 | 0.34 | 0.34 | 93 | 1020.0 |
| 20260507160504 | 53 | 242 | 1.0 | 3.0 | 0.20 | 0.29 | 0.29 | 93 | 1020.0 |
| 20260507155504 | 53 | 236 | 1.0 | 1.0 | 0.15 | 0.23 | 0.23 | 93 | 1020.1 |
| 20260507155004 | 53 | 196 | 1.0 | 1.0 | 0.13 | 0.20 | 0.20 | 93 | 1019.9 |
| 20260507154504 | 53 | 288 | 1.0 | 3.0 | 0.10 | 0.17 | 0.17 | 93 | 1019.9 |
| 20260507154004 | 54 | 35 | 2.0 | 3.0 | 0.10 | 0.16 | 0.16 | 92 | 1020.0 |
| 20260507153004 | 54 | 65 | 3.0 | 7.0 | 0.12 | 0.14 | 0.14 | 92 | 1019.5 |
| 20260507152503 | 55 | 36 | 5.0 | 10.0 | 0.11 | 0.12 | 0.12 | 92 | 1019.2 |
| 20260507152004 | 55 | 38 | 3.0 | 10.0 | 0.10 | 0.11 | 0.11 | 92 | 1019.3 |
| 20260507151504 | 55 | 51 | 3.0 | 7.0 | 0.08 | 0.09 | 0.09 | 92 | 1019.0 |
| 20260507151004 | 56 | 39 | 2.0 | 5.0 | 0.08 | 0.09 | 0.09 | 92 | 1019.0 |
| 20260507150005 | 55 | 49 | 4.0 | 8.0 | 0.08 | 0.08 | 0.08 | 91 | 1019.0 |
| 20260507144004 | 57 | 42 | 3.0 | 8.0 | 0.06 | 0.06 | 0.06 | 87 | 1018.6 |
| 20260507143503 | 58 | 29 | 5.0 | 9.0 | 0.03 | 0.03 | 0.03 | 85 | 1018.5 |
| 20260507143005 | 58 | 50 | 3.0 | 9.0 | 0.02 | 0.02 | 0.02 | 83 | 1018.2 |
| 20260507142504 | 58 | 31 | 2.0 | 10.0 | 0.01 | 0.01 | 0.01 | 83 | 1018.2 |
| 20260507142004 | 58 | 25 | 4.0 | 8.0 | 0.01 | 0.01 | 0.01 | 84 | 1017.9 |
| 20260507141504 | 58 | 40 | 5.0 | 10.0 | 0.01 | 0.01 | 0.01 | 84 | 1018.0 |
| 20260507141003 | 58 | 45 | 5.0 | 12.0 | 0.01 | 0.01 | 0.01 | 84 | 1018.1 |
| 20260507135504 | 60 | 52 | 3.0 | 6.0 | 0.00 | 0.00 | 0.00 | 79 | 1018.0 |
| 20260507135004 | 60 | 53 | 6.0 | 14.0 | 0.00 | 0.00 | 0.00 | 76 | 1017.7 |
| 20260507134504 | 61 | 44 | 5.0 | 12.0 | 0.00 | 0.00 | 0.00 | 75 | 1017.7 |
| 20260507133504 | 62 | 21 | 5.0 | 17.0 | 0.00 | 0.00 | 0.00 | 68 | 1017.5 |
| 20260507133004 | 62 | 31 | 5.0 | 10.0 | 0.00 | 0.00 | 0.00 | 68 | 1017.5 |
| 20260507132503 | 62 | 44 | 5.0 | 12.0 | 0.00 | 0.00 | 0.00 | 67 | 1017.5 |
| 20260507131504 | 63 | 42 | 5.0 | 10.0 | 0.00 | 0.00 | 0.00 | 64 | 1017.5 |
| 20260507131004 | 63 | 27 | 6.0 | 9.0 | 0.00 | 0.01 | 0.00 | 63 | 1017.6 |
| 20260507130504 | 63 | 32 | 4.0 | 10.0 | 0.00 | 0.03 | 0.00 | 63 | 1017.7 |
| 20260507130004 | 63 | 34 | 5.0 | 10.0 | 0.00 | 0.04 | 0.00 | 63 | 1017.5 |
| 20260507125504 | 63 | 45 | 6.0 | 13.0 | 0.00 | 0.06 | 0.00 | 64 | 1017.8 |
| 20260507125004 | 64 | 47 | 6.0 | 13.0 | 0.00 | 0.09 | 0.00 | 63 | 1017.8 |
| 20260507124504 | 65 | 43 | 5.0 | 12.0 | 0.00 | 0.09 | 0.00 | 61 | 1017.5 |
| 20260507123503 | 64 | 42 | 6.0 | 13.0 | 0.00 | 0.09 | 0.00 | 61 | 1017.7 |
| 20260507123004 | 64 | 35 | 7.0 | 13.0 | 0.00 | 0.09 | 0.00 | 63 | 1017.8 |
| 20260507122504 | 64 | 37 | 5.0 | 13.0 | 0.00 | 0.09 | 0.00 | 64 | 1017.8 |
| 20260507122004 | 64 | 59 | 6.0 | 12.0 | 0.00 | 0.09 | 0.00 | 65 | 1018.0 |
| 20260507121004 | 65 | 49 | 5.0 | 13.0 | 0.00 | 0.09 | 0.00 | 63 | 1018.1 |
| 20260507120504 | 65 | 47 | 5.0 | 9.0 | 0.00 | 0.09 | 0.00 | 64 | 1018.0 |
| 20260507120005 | 65 | 44 | 8.0 | 14.0 | 0.00 | 0.09 | 0.00 | 65 | 1018.2 |
| 20260507115503 | 64 | 48 | 6.0 | 13.0 | 0.00 | 0.09 | 0.00 | 66 | 1018.2 |
| 20260507115004 | 63 | 37 | 5.0 | 10.0 | 0.00 | 0.09 | 0.00 | 67 | 1018.5 |
| 20260507114504 | 63 | 44 | 6.0 | 14.0 | 0.00 | 0.09 | 0.00 | 68 | 1018.7 |
| 20260507114004 | 62 | 23 | 5.0 | 9.0 | 0.00 | 0.09 | 0.00 | 70 | 1018.9 |
| 20260507113504 | 62 | 32 | 7.0 | 14.0 | 0.00 | 0.09 | 0.00 | 71 | 1018.8 |
| 20260507113004 | 62 | 49 | 5.0 | 10.0 | 0.00 | 0.09 | 0.00 | 69 | 1018.7 |
| 20260507112004 | 62 | 49 | 5.0 | 15.0 | 0.00 | 0.09 | 0.00 | 69 | 1019.2 |
| 20260507111506 | 62 | 49 | 6.0 | 10.0 | 0.00 | 0.09 | 0.00 | 69 | 1019.1 |
| 20260507110504 | 64 | 33 | 6.0 | 10.0 | 0.00 | 0.09 | 0.00 | 68 | 1018.9 |
| 20260507110004 | 63 | 39 | 5.0 | 13.0 | 0.00 | 0.09 | 0.00 | 68 | 1019.0 |
| 20260507105504 | 63 | 37 | 6.0 | 10.0 | 0.00 | 0.09 | 0.00 | 68 | 1019.2 |
| 20260507104504 | 61 | 42 | 4.0 | 9.0 | 0.00 | 0.09 | 0.00 | 71 | 1019.6 |
| 20260507104004 | 61 | 46 | 6.0 | 10.0 | 0.00 | 0.09 | 0.00 | 72 | 1019.6 |
| 20260507103503 | 61 | 48 | 5.0 | 10.0 | 0.00 | 0.09 | 0.00 | 73 | 1019.6 |
| 20260507103003 | 61 | 347 | 2.0 | 6.0 | 0.00 | 0.09 | 0.00 | 73 | 1019.6 |
| 20260507102504 | 61 | 39 | 2.0 | 5.0 | 0.00 | 0.09 | 0.00 | 74 | 1019.8 |
| 20260507102006 | 60 | 359 | 2.0 | 7.0 | 0.00 | 0.09 | 0.00 | 74 | 1019.7 |
| 20260507101506 | 61 | 53 | 3.0 | 6.0 | 0.00 | 0.09 | 0.00 | 73 | 1019.7 |
| 20260507101004 | 60 | 105 | 3.0 | 7.0 | 0.00 | 0.09 | 0.00 | 75 | 1019.7 |
| 20260507100504 | 60 | 42 | 3.0 | 7.0 | 0.00 | 0.09 | 0.00 | 76 | 1019.8 |
| 20260507095003 | 59 | 34 | 5.0 | 8.0 | 0.00 | 0.09 | 0.00 | 77 | 1020.3 |
| 20260507094504 | 59 | 38 | 4.0 | 7.0 | 0.00 | 0.09 | 0.00 | 77 | 1020.1 |
| 20260507094004 | 59 | 42 | 3.0 | 7.0 | 0.00 | 0.09 | 0.00 | 77 | 1020.3 |
| 20260507093037 | 60 | 46 | 4.0 | 8.0 | 0.00 | 0.09 | 0.00 | 76 | 1020.1 |
| 20260507092533 | 59 | 39 | 4.0 | 9.0 | 0.00 | 0.09 | 0.00 | 77 | 1020.0 |
| 20260507091036 | 59 | 42 | 2.0 | 7.0 | 0.00 | 0.09 | 0.00 | 78 | 1020.1 |
| 20260507090532 | 59 | 57 | 2.0 | 7.0 | 0.00 | 0.09 | 0.00 | 78 | 1020.2 |
| 20260507090033 | 59 | 40 | 2.0 | 6.0 | 0.00 | 0.09 | 0.00 | 78 | 1020.3 |
| 20260507085509 | 59 | 14 | 2.0 | 5.0 | 0.00 | 0.09 | 0.00 | 80 | 1020.4 |
| 20260507084504 | 58 | 36 | 5.0 | 9.0 | 0.00 | 0.09 | 0.00 | 80 | 1020.6 |
| 20260507084004 | 58 | 47 | 2.0 | 5.0 | 0.00 | 0.09 | 0.00 | 81 | 1020.4 |
| 20260507083503 | 58 | 25 | 3.0 | 8.0 | 0.00 | 0.09 | 0.00 | 81 | 1020.6 |
| 20260507083004 | 58 | 52 | 2.0 | 5.0 | 0.00 | 0.09 | 0.00 | 81 | 1020.4 |
| 20260507082504 | 58 | 58 | 3.0 | 6.0 | 0.00 | 0.09 | 0.00 | 81 | 1020.5 |
| 20260507081504 | 58 | 56 | 2.0 | 5.0 | 0.00 | 0.09 | 0.00 | 81 | 1020.4 |
| 20260507081004 | 58 | 34 | 3.0 | 7.0 | 0.00 | 0.09 | 0.00 | 81 | 1020.5 |
| 20260507080504 | 58 | 35 | 3.0 | 7.0 | 0.00 | 0.09 | 0.00 | 82 | 1020.4 |
| 20260507080004 | 58 | 48 | 3.0 | 7.0 | 0.00 | 0.09 | 0.00 | 84 | 1020.4 |
| 20260507075504 | 57 | 50 | 2.0 | 7.0 | 0.00 | 0.09 | 0.00 | 84 | 1020.2 |
| 20260507075004 | 57 | 50 | 2.0 | 6.0 | 0.00 | 0.09 | 0.00 | 85 | 1020.1 |
| 20260507074503 | 57 | 54 | 3.0 | 7.0 | 0.00 | 0.09 | 0.00 | 86 | 1020.3 |
| 20260507074004 | 57 | 47 | 1.0 | 3.0 | 0.00 | 0.09 | 0.00 | 87 | 1020.4 |
| 20260507072504 | 56 | 60 | 1.0 | 2.0 | 0.00 | 0.09 | 0.00 | 87 | 1020.6 |
| 20260507072004 | 55 | 7 | 0.0 | 2.0 | 0.00 | 0.09 | 0.00 | 88 | 1020.9 |
| 20260507071504 | 55 | 64 | 0.0 | 2.0 | 0.00 | 0.09 | 0.00 | 88 | 1020.7 |
| 20260507070504 | 55 | 81 | 1.0 | 2.0 | 0.00 | 0.09 | 0.00 | 88 | 1020.7 |
| 20260507065503 | 55 | 141 | 1.0 | 2.0 | 0.00 | 0.09 | 0.00 | 88 | 1020.7 |
| 20260507065003 | 54 | 187 | 0.0 | 1.0 | 0.00 | 0.09 | 0.00 | 89 | 1020.5 |
| 20260507064504 | 54 | 233 | 0.0 | 1.0 | 0.00 | 0.09 | 0.00 | 89 | 1020.7 |
| 20260507063004 | 53 | 244 | 1.0 | 2.0 | 0.00 | 0.09 | 0.00 | 89 | 1020.7 |
| 20260507062504 | 53 | 231 | 2.0 | 2.0 | 0.00 | 0.09 | 0.00 | 89 | 1020.7 |
| 20260507062004 | 53 | 220 | 0.0 | 2.0 | 0.00 | 0.09 | 0.00 | 90 | 1020.7 |
| 20260507061503 | 53 | 257 | 1.0 | 2.0 | 0.00 | 0.09 | 0.00 | 90 | 1020.8 |
| 20260507061004 | 53 | 290 | 0.0 | 1.0 | 0.00 | 0.09 | 0.00 | 91 | 1020.7 |
| 20260507060504 | 53 | 291 | 0.0 | 1.0 | 0.00 | 0.09 | 0.00 | 91 | 1020.6 |